Elko, NV

9:03 PM PST on February 06, 2016 (GMT -0800)
Elko Regional

Weather History for KEKO - June, 2013

Change the Weather History Date:

Sunday, June 23, 2013

  Actual Average Record
Temperature  
Mean Temperature 64 °F 65 °F  
Max Temperature 86 °F 83 °F 97 °F (1919)
Min Temperature 42 °F 46 °F 30 °F (1891)
Degree Days  
Heating Degree Days 1 3  
Month to date heating degree days 58 118  
Since 1 June heating degree days 58 118  
Since 1 July heating degree days 6780 7053  
Cooling Degree Days 0 2  
Month to date cooling degree days 55 28  
Year to date cooling degree days 59 32  
Since 1 June cooling degree days 55 28  
Growing Degree Days 13 (Base 50)    
Moisture  
Dew Point 29 °F    
Average Humidity 33    
Maximum Humidity 53    
Minimum Humidity 12    
Precipitation  
Precipitation 0.00 in 0.02 in 0.50 in (1918)
Month to date precipitation 0.16 0.56  
Year to date precipitation 2.83 5.45  
Snow  
Snow 0.00 in 0.00 in 0.00 in (1888)
Month to date snowfall 0.0 0.0  
Since 1 June snowfall 0.0 0.0  
Since 1 July snowfall 42.2 41.3  
Snow Depth 0.00 in    
Sea Level Pressure  
Sea Level Pressure 29.72 in    
Wind  
Wind Speed 6 mph (WSW)    
Max Wind Speed 33 mph    
Max Gust Speed 43 mph    
Visibility 10 miles    
Events      
T = Trace of Precipitation, MM = Missing Value Source: NWS Daily Summary

Daily Weather History Graph

Daily Weather History Graph

Search for Another Location

Airport or City:

Trip Planner

Search our weather history database for the weather conditions in past years. The results will help you decide how hot, cold, wet, or windy it might be!

Date:

Astronomy

Jun. 23, 2013 Rise Set
Actual Time 5:12 AM PDT 8:18 PM PDT
Civil Twilight 4:38 AM PDT 8:52 PM PDT
Nautical Twilight 3:56 AM PDT 9:34 PM PDT
Astronomical Twilight 3:05 AM PDT 10:25 PM PDT
Moon 8:34 PM PDT (6/23) 5:35 AM PDT (6/23)
Length of Visible Light 16h 13m
Length of Day
15h 06m
Full, 100% of the Moon is Illuminated
Jun 23
Full
Jun 29
Last Quarter
Jul 8
New
Jul 15
First Quarter
Jul 22
Full

Hourly Weather History & Observations

Time (PDT) Temp. Windchill Dew Point Humidity Pressure Visibility Wind Dir Wind Speed Gust Speed Precip Events Conditions
12:56 AM 55.9 °F - 25.0 °F 30% 29.86 in 10.0 mi East 4.6 mph - N/A   Clear
1:56 AM 48.0 °F - 25.0 °F 41% 29.87 in 10.0 mi Calm Calm - N/A   Clear
2:56 AM 43.0 °F 39.5 °F 25.0 °F 49% 29.88 in 10.0 mi WSW 5.8 mph - N/A   Clear
3:56 AM 44.1 °F - 26.1 °F 49% 29.86 in 10.0 mi Calm Calm - N/A   Clear
4:56 AM 43.0 °F - 25.0 °F 49% 29.86 in 10.0 mi Calm Calm - N/A   Clear
5:56 AM 42.1 °F - 27.0 °F 55% 29.86 in 10.0 mi Calm Calm - N/A   Clear
6:56 AM 51.1 °F - 27.0 °F 39% 29.83 in 10.0 mi Calm Calm - N/A   Clear
7:56 AM 59.0 °F - 28.9 °F 32% 29.81 in 10.0 mi Calm Calm - N/A   Clear
8:56 AM 64.9 °F - 30.9 °F 28% 29.80 in 10.0 mi Calm Calm - N/A   Clear
9:56 AM 71.1 °F - 28.9 °F 21% 29.75 in 10.0 mi Calm Calm - N/A   Clear
10:56 AM 75.0 °F - 30.0 °F 19% 29.72 in 10.0 mi Calm Calm - N/A   Clear
11:56 AM 80.1 °F - 27.0 °F 14% 29.68 in 10.0 mi Variable 3.5 mph - N/A   Clear
12:56 PM 81.0 °F - 27.0 °F 14% 29.65 in 10.0 mi West 6.9 mph - N/A   Clear
1:56 PM 82.0 °F - 28.0 °F 14% 29.64 in 10.0 mi WSW 6.9 mph 17.3 mph N/A   Scattered Clouds
2:56 PM 84.0 °F - 27.0 °F 13% 29.61 in 10.0 mi SSE 8.1 mph 17.3 mph N/A   Clear
3:56 PM 82.0 °F - 27.0 °F 13% 29.59 in 10.0 mi WSW 8.1 mph - N/A   Clear
4:56 PM 82.9 °F - 26.1 °F 13% 29.57 in 10.0 mi West 20.7 mph 31.1 mph N/A   Partly Cloudy
5:56 PM 80.1 °F - 28.0 °F 15% 29.58 in 10.0 mi North 5.8 mph 18.4 mph N/A   Mostly Cloudy
6:56 PM 79.0 °F - 30.0 °F 17% 29.58 in 10.0 mi Calm Calm - N/A   Mostly Cloudy
7:56 PM 73.9 °F - 34.0 °F 23% 29.60 in 9.0 mi WSW 26.5 mph 42.6 mph N/A   Overcast
8:56 PM 68.0 °F - 32.0 °F 26% 29.65 in 10.0 mi WNW 20.7 mph 28.8 mph N/A   Overcast
9:56 PM 66.9 °F - 34.0 °F 30% 29.67 in 10.0 mi West 9.2 mph 23.0 mph N/A   Mostly Cloudy
10:56 PM 64.9 °F - 36.0 °F 34% 29.66 in 10.0 mi SW 5.8 mph - N/A   Partly Cloudy
11:56 PM 63.0 °F - 37.0 °F 38% 29.66 in 10.0 mi South 5.8 mph - N/A   Clear